[Date Prev][Date Next][Thread Prev][Thread Next] - [Date Index][Thread Index][Author Index]
2 Line ISS Keps 1-14
- Subject: [sarex] 2 Line ISS Keps 1-14
- From: "Dave Larsen PhD" <doc@xxxxxxxxxxx>
- Date: Fri, 13 Jan 2006 18:56:17 -0800
ISS
1 25544U 98067A 06013.86401788 .00010485 00000-0 76171-4 0 1493
2 25544 051.6445 260.9767 0010783 150.2352 307.0010 15.73988727408843
----
Via the sarex mailing list at AMSAT.ORG courtesy of AMSAT-NA.
To unsubscribe, send "unsubscribe sarex" to Majordomo@amsat.org
AMSAT Home